Regional Weather Roundup
Issued by NWS

Home | Current Version | Previous Version | Text Only | Print | Product List | Glossary On
Versions: 1 2 3 4 5 6 7 8 9 10 11 12 13 14 15 16 17 18 19 20 21 22 23 24 25 26 27 28 29 30 31 32 33 34 35 36 37 38 39 40 41 42 43 44 45 46 47 48 49 50
000
ASUS43 KDTX 232101
RWRMI
MICHIGAN HOURLY REGIONAL WEATHER ROUNDUP
NATIONAL WEATHER SERVICE DETROIT/PONTIAC MI
500 PM EDT SAT SEP 23 2017

NOTE: "FAIR" INDICATES FEW OR NO CLOUDS BELOW 12,000 FEET WITH NO
SIGNIFICANT WEATHER AND/OR OBSTRUCTION TO VISIBILITY.

MIZ047>049-052>055-059>063-066>070-074>076-081>083-232200-
SOUTHEAST LOWER MICHIGAN

CITY           SKY/WX    TMP DP  RH WIND       PRES   REMARKS
ADRIAN         SUNNY     90  59  35 SE9       30.11F
ALMA           PTSUNNY   92  53  26 S12       30.08F HX  90
ANN ARBOR      SUNNY     90  63  40 E7        30.10F HX  91
BAD AXE        SUNNY     90  63  39 CALM      30.10F HX  91
CARO           SUNNY     92  62  37 CALM      30.09F HX  92
DETROIT CITY   SUNNY     88  60  38 SE7       30.11F
DETROIT        MOSUNNY   90  66  45 VRB5      30.11F HX  92
FLINT          MOSUNNY   94  61  33 CALM      30.09F HX  94
GROSSE ILE     SUNNY     79  67  66 S5        30.10F
HILLSDALE      SUNNY     90  59  35 E6        30.11F
HOWELL         SUNNY     92  53  27 S3        30.10F

CITY           SKY/WX    TMP DP  RH WIND       PRES   REMARKS
JACKSON        SUNNY     93  53  25 E7        30.10  HX  90
LAMBERTVILLE   SUNNY     86  63  45 E5        30.10F
LANSING        SUNNY     92  58  31 S6        30.09F HX  91
LAPEER         FAIR      91  57  31 CALM      30.10F
MASON          SUNNY     93  57  29 SE6       30.10S HX  92
MONROE         SUNNY     86  61  42 SE6       30.10F
PONTIAC        MOSUNNY   91  62  37 S7        30.10F HX  91
PORT HOPE        N/A     78  71  79 E9        30.07F
PORT HURON     SUNNY     91  64  40 S6        30.10F HX  93
TRI CITIES     SUNNY     93  65  39 SE6       30.08F HX  95
MIDLAND        FAIR      94  63  35 CALM      30.07S HX  95
TROY           SUNNY     90  61  37 SE5       30.12F HX  90
SAGINAW HB     SUNNY     91  59  33 E3        30.08F HX  90
$$
MIZ043>046-050>051-056>058-064>065-071>073-077>080-232200-
SOUTHWEST LOWER MICHIGAN

CITY           SKY/WX    TMP DP  RH WIND       PRES   REMARKS
BATTLE CREEK   SUNNY     93  55  27 S8        30.09F HX  91
BENTON HARBOR  SUNNY     88  66  48 N5        30.07F HX  90
BIG RAPIDS     MOSUNNY   89  60  37 W3        30.08F
COLDWATER      SUNNY     91  53  28 E6        30.10F
FREMONT        FAIR      92  62  35 W8        30.07F HX  92
HOLLAND        SUNNY     91  64  40 NW7       30.07F HX  92
GRAND RAPIDS   MOSUNNY   95  56  26 S6        30.07F HX  93
IONIA          FAIR      94  57  28 S5        30.07F HX  92
KALAMAZOO      SUNNY     93  49  22 VRB5      30.08F HX  90
LUDINGTON      SUNNY     85  66  53 SW9       30.07S
MARSHALL       SUNNY     92  55  28 S5        30.09F HX  90
MUSKEGON       MOSUNNY   91  65  41 SW6       30.07F HX  93
SOUTH HAVEN    SUNNY     87  65  46 N6        30.07S
$$
MIZ016>042-232200-
NORTHERN LOWER MICHIGAN

CITY           SKY/WX    TMP DP  RH WIND       PRES   REMARKS
ALPENA         MOSUNNY   92  67  43 NW5       30.06F HX  95
BEAVER ISLAND  SUNNY     82  65  55 SW10G17   30.03F
BELLAIRE       SUNNY     91  62  38 CALM      30.05F HX  91
CADILLAC       SUNNY     92  59  33 SW6       30.09F HX  91
CHARLEVOIX     MOSUNNY   89  61  39 SW10      30.07F
FRANKFORT      SUNNY     85  67  54 SW6       30.06F
GAYLORD        SUNNY     87  64  46 W7        30.09F
GRAYLING       SUNNY     90  61  37 W6        30.10S HX  90
HARBOR SPRINGS SUNNY     84  64  51 W3        30.04F
HOUGHTON LAKE  SUNNY     90  62  39 W5        30.10F HX  90
MANISTEE       SUNNY     89  67  47 SW9       30.05F HX  92
OSCODA         SUNNY     89  66  46 S6G18     30.07F HX  91
PELLSTON       SUNNY     89  62  40 W7        30.05F
ROGERS CITY    SUNNY     84  67  56 CALM      30.06F
TRAVERSE CITY  MOSUNNY   93  62  35 SW8       30.03F HX  93
$$
MIZ007>008-015-232200-
EASTERN UPPER MICHIGAN

CITY           SKY/WX    TMP DP  RH WIND       PRES   REMARKS
KINROSS        SUNNY     85  68  56 SW9G18    30.03F
MACKINAC ISLAN SUNNY     80  65  60 SW6       30.03F
NEWBERRY       SUNNY     82  69  65 S14G20    30.01S HAZE
S. S. MARIE    SUNNY     87  68  52 SW10      30.01R HX  90
MUNISING         N/A     88  71  57 S10G17    29.96F HX  94
$$
MIZ004>006-011>014-085-232200-
CENTRAL UPPER MICHIGAN

CITY           SKY/WX    TMP DP  RH WIND       PRES   REMARKS
MANISTIQUE     SUNNY     71  65  81 SW7       30.02F
ESCANABA       SUNNY     78  68  71 S12       29.99F
MENOMINEE      SUNNY     88  69  53 SW12      30.01F HX  92
SAWYER-GWINN   SUNNY     88  66  48 SW13G21   30.00F HX  90
$$
MIZ001>003-009>011-084-232200-
WESTERN UPPER MICHIGAN

CITY           SKY/WX    TMP DP  RH WIND       PRES   REMARKS
IRON MOUNTAIN  SUNNY     89  64  43 S12       29.99F HX  90
HOUGHTON       SUNNY     88  71  57 S8        29.94S HX  94
COPPER HARBOR    N/A     78  66  66 N9        29.93S
$$

ABBREVIATIONS USED IN REMARKS
   TC - TEMPERATURE IN CELSIUS
  WCI - WIND CHILL INDEX
   HX - HEAT INDEX
  VSB - VISIBILITY




USA.gov is the U.S. government's official web portal to all federal, state and local government web resources and services.